Location: Hall+in+Tirol
(47.2830°N, 11.5170°E)
Time: 12:26:31
(UTC+02:00)

Gurwin Techsat 1B - Visible Passes

Search period start: 26 September 2016 00:00
Search period end: 06 October 2016 00:00
Orbit: 811 x 815 km, 98.6° (Epoch: 25 September)

Date Brightness Start Highest point End Pass type
(mag) Time Alt. Az. Time Alt. Az. Time Alt. Az.
26 Sep 10.9 02:31:19 10° NE 02:33:20 19° NE 02:33:20 19° NE visible
26 Sep 9.5 04:10:53 10° N 04:14:32 37° NNW 04:14:32 37° NNW visible
27 Sep 11.3 02:09:14 10° NE 02:10:09 13° NE 02:10:09 13° NE visible
27 Sep 9.6 03:47:57 10° N 03:51:21 40° N 03:51:21 40° N visible
27 Sep 10.5 05:30:02 10° NNW 05:32:18 13° NW 05:32:33 13° NW visible
28 Sep 10.0 03:25:08 10° NNE 03:28:10 35° NNE 03:28:10 35° NNE visible
28 Sep 10.2 05:06:15 10° NNW 05:09:23 19° NW 05:09:23 19° NW visible
29 Sep 10.5 03:02:27 10° NNE 03:05:00 27° NE 03:05:00 27° NE visible
29 Sep 10.0 04:42:55 10° N 04:46:12 25° NW 04:46:12 25° NW visible
30 Sep 10.9 02:39:56 10° NNE 02:41:49 20° NE 02:41:49 20° NE visible
30 Sep 9.8 04:19:47 10° N 04:23:01 31° NNW 04:23:01 31° NNW visible
01 Oct 11.3 02:17:42 10° NE 02:18:38 14° NE 02:18:38 14° NE visible
01 Oct 9.8 03:56:48 10° N 03:59:51 34° N 03:59:51 34° N visible
01 Oct 10.7 05:39:37 10° NW 05:40:57 11° NW 05:41:03 11° NW visible
02 Oct 10.1 03:33:56 10° NNE 03:36:40 31° NNE 03:36:40 31° NNE visible
02 Oct 10.4 05:15:22 10° NNW 05:17:52 16° NW 05:17:52 16° NW visible
03 Oct 10.5 03:11:12 10° NNE 03:13:29 26° NNE 03:13:29 26° NNE visible
03 Oct 10.2 04:51:55 10° N 04:54:41 21° NW 04:54:41 21° NW visible
04 Oct 11.0 02:48:37 10° NNE 02:50:19 19° NE 02:50:19 19° NE visible
04 Oct 10.0 04:28:43 10° N 04:31:30 26° NNW 04:31:30 26° NNW visible
05 Oct 11.3 02:26:15 10° NE 02:27:08 14° NE 02:27:08 14° NE visible
05 Oct 10.1 04:05:41 10° N 04:08:20 29° N 04:08:20 29° N visible
